GW5131 Weather Reports


Display with metric or nautical units.
time (UTC)temp
F
wind
direction
speed
MPH
gust
MPH
rain 1hr
in
rain 24hr
in
rain mn
in
humidity
%
barometer
mb
20260506205836 56 100 0.0 2.0 0.07 0.59 0.59 98 976.4
20260506205331 56 168 0.0 2.0 0.07 0.59 0.59 97 976.4
20260506204828 56 201 0.0 1.0 0.00 0.58 0.58 97 976.6
20260506204326 56 201 0.0 1.0 0.00 0.58 0.58 97 976.5
20260506203823 55 204 0.0 2.0 0.00 0.58 0.58 97 976.1
20260506203320 56 192 2.0 3.0 0.00 0.58 0.58 97 975.9
20260506202817 56 192 0.0 0.0 0.05 0.58 0.58 97 976.2
20260506202314 56 192 0.0 2.0 0.05 0.58 0.58 96 976.1
20260506201810 56 189 1.0 3.0 0.00 0.57 0.57 96 975.9
20260506201308 56 156 2.0 4.0 0.00 0.57 0.57 96 976.2
20260506200805 56 101 1.0 1.0 0.00 0.57 0.57 96 976.0
20260506200301 56 95 1.0 3.0 0.00 0.57 0.57 95 975.9
20260506195757 56 110 2.0 4.0 0.00 0.57 0.57 95 975.8
20260506195254 56 103 2.0 3.0 0.00 0.57 0.57 96 975.9
20260506194751 57 66 2.0 2.0 0.00 0.57 0.57 96 975.6
20260506194247 56 130 2.0 4.0 0.00 0.57 0.57 96 975.8
20260506193745 56 157 0.0 2.0 0.00 0.57 0.57 97 975.8
20260506193242 56 159 1.0 6.0 0.00 0.57 0.57 96 975.6
20260506192738 56 95 2.0 3.0 0.00 0.57 0.57 96 975.8
20260506192235 57 46 1.0 2.0 0.00 0.57 0.57 96 975.7
20260506191732 57 137 4.0 4.0 0.00 0.57 0.57 95 975.7
20260506191228 58 65 1.0 3.0 0.00 0.57 0.57 95 975.8
20260506190725 58 84 1.0 2.0 0.00 0.57 0.57 96 975.5
20260506190222 58 45 3.0 6.0 0.00 0.57 0.57 95 975.4
20260506185719 58 59 1.0 2.0 0.00 0.57 0.57 95 975.4
20260506185215 58 84 1.0 3.0 0.00 0.57 0.57 95 975.2
20260506184713 58 97 1.0 6.0 0.00 0.57 0.57 95 975.2
20260506184210 58 327 1.0 4.0 0.00 0.57 0.57 96 975.3
20260506183707 58 283 2.0 10.0 0.00 0.57 0.57 95 975.4
20260506183202 59 64 0.0 2.0 0.00 0.57 0.57 96 975.0
20260506182700 59 351 4.0 4.0 0.00 0.57 0.57 96 974.9
20260506182157 59 335 2.0 4.0 0.00 0.57 0.57 96 974.9
20260506181655 60 147 1.0 2.0 0.00 0.57 0.57 97 974.9
20260506181152 60 334 3.0 4.0 0.00 0.57 0.57 97 975.0
20260506180649 60 327 0.0 2.0 0.00 0.57 0.57 97 974.8
20260506180145 61 45 0.0 1.0 0.00 0.57 0.57 97 975.1
20260506175642 61 115 1.0 2.0 0.00 0.57 0.57 98 975.0
20260506175138 60 103 3.0 8.0 0.00 0.57 0.57 97 974.9
20260506174631 61 124 1.0 3.0 0.07 0.57 0.57 98 975.2
20260506174127 61 99 1.0 3.0 0.14 0.57 0.57 98 974.9
20260506173625 60 209 2.0 3.0 0.07 0.56 0.56 98 974.9
20260506173121 61 135 1.0 1.0 0.05 0.55 0.55 98 975.2
20260506172619 61 207 0.0 3.0 0.05 0.55 0.55 98 975.0
20260506172115 61 117 0.0 3.0 0.00 0.54 0.54 98 974.8
20260506171613 61 176 0.0 1.0 0.00 0.54 0.54 98 974.8
20260506171110 61 90 0.0 2.0 0.00 0.54 0.54 98 975.0
20260506170607 61 109 2.0 2.0 0.00 0.54 0.54 98 974.9
20260506170105 61 92 3.0 3.0 0.00 0.54 0.54 98 974.8
20260506165603 61 125 3.0 3.0 0.00 0.54 0.54 98 974.9
20260506165059 61 108 2.0 3.0 0.00 0.54 0.54 99 975.1
20260506164556 61 104 1.0 2.0 0.00 0.54 0.54 99 975.1
20260506164053 61 185 1.0 4.0 0.00 0.54 0.54 98 974.9
20260506163549 61 70 1.0 4.0 0.00 0.54 0.54 98 975.1
20260506163045 61 328 1.0 7.0 0.00 0.54 0.54 98 975.0
20260506162541 61 122 1.0 2.0 0.00 0.54 0.54 98 974.8
20260506162039 61 98 2.0 3.0 0.00 0.54 0.54 98 974.9
20260506161536 61 226 1.0 1.0 0.00 0.54 0.54 98 974.9
20260506161033 61 100 0.0 1.0 0.00 0.54 0.54 98 974.7
20260506160531 61 99 1.0 3.0 0.00 0.54 0.54 98 974.7
20260506160028 61 95 0.0 2.0 0.00 0.54 0.54 99 974.8
20260506155526 61 96 1.0 3.0 0.00 0.54 0.54 98 974.8
20260506153657 61 161 0.0 4.0 0.00 0.54 0.54 99 974.6
20260506153155 61 84 1.0 3.0 0.00 0.54 0.54 99 974.2
20260506152651 61 103 0.0 6.0 0.00 0.54 0.54 99 974.4
20260506152149 61 87 1.0 6.0 0.00 0.54 0.54 99 974.1
20260506151648 60 90 3.0 7.0 0.00 0.54 0.54 99 974.1
20260506151144 60 123 4.0 6.0 0.00 0.54 0.54 99 974.2
20260506150641 60 99 2.0 6.0 0.07 0.54 0.54 99 974.1
20260506150138 60 192 0.0 6.0 0.07 0.54 0.54 99 974.2
20260506145635 60 130 3.0 4.0 0.00 0.53 0.53 99 974.2
20260506145131 60 243 0.0 3.0 0.00 0.53 0.53 99 974.1
20260506144629 60 100 0.0 2.0 0.00 0.53 0.53 99 974.1
20260506144125 60 100 0.0 1.0 0.00 0.53 0.53 99 974.1
20260506143623 60 100 1.0 2.0 0.00 0.53 0.53 99 974.0
20260506143121 60 103 1.0 2.0 0.00 0.53 0.53 99 973.6
20260506142619 59 103 0.0 0.0 0.00 0.53 0.53 99 973.8
20260506142117 60 103 0.0 0.0 0.00 0.53 0.53 99 973.7
20260506141614 59 103 0.0 0.0 0.00 0.53 0.53 99 973.7
20260506141113 59 103 1.0 2.0 0.00 0.53 0.53 99 973.5
20260506140610 59 107 0.0 0.0 0.00 0.53 0.53 99 973.5
20260506140107 59 107 1.0 1.0 0.00 0.53 0.53 99 973.1
20260506135603 59 107 0.0 0.0 0.05 0.53 0.53 99 973.3
20260506135100 59 107 0.0 0.0 0.05 0.53 0.53 99 973.3
20260506134556 59 107 0.0 0.0 0.00 0.52 0.52 99 973.3
20260506134052 59 107 0.0 1.0 0.00 0.52 0.52 99 973.4
20260506133549 59 107 0.0 1.0 0.00 0.52 0.52 99 973.6
20260506133047 59 107 1.0 3.0 0.00 0.52 0.52 99 973.3
20260506132544 58 109 0.0 1.0 0.00 0.52 0.52 99 973.6
20260506132041 58 109 0.0 0.0 0.00 0.52 0.52 99 973.4
20260506131538 58 109 1.0 1.0 0.00 0.52 0.52 99 973.6
20260506131034 58 165 0.0 0.0 0.00 0.52 0.52 99 973.4
20260506130532 58 165 0.0 0.0 0.00 0.52 0.52 99 973.5
20260506130029 58 165 0.0 0.0 0.00 0.52 0.52 99 973.5
20260506125527 58 165 0.0 0.0 0.00 0.52 0.52 99 973.1
20260506125025 58 165 0.0 0.0 0.00 0.52 0.52 99 973.1
20260506124523 58 165 0.0 0.0 0.00 0.52 0.52 99 973.4
20260506124020 58 165 0.0 0.0 0.00 0.52 0.52 99 973.1
20260506123518 58 165 0.0 0.0 0.00 0.52 0.52 99 973.3
20260506123015 58 165 2.0 2.0 0.00 0.52 0.52 99 973.1
20260506122512 58 98 0.0 1.0 0.00 0.52 0.52 99 973.1
20260506122010 58 98 0.0 0.0 0.00 0.52 0.52 99 973.4
20260506121507 58 112 2.0 2.0 0.00 0.52 0.52 99 973.1
20260506121003 57 118 1.0 3.0 0.00 0.52 0.52 99 973.3
20260506120501 57 89 0.0 1.0 0.00 0.52 0.52 99 973.3
20260506115958 57 89 0.0 0.0 0.00 0.52 0.52 99 973.0
20260506115456 57 89 1.0 2.0 0.07 0.52 0.52 99 972.8
20260506114954 57 98 1.0 1.0 0.07 0.52 0.52 99 972.8
20260506114451 57 102 1.0 1.0 0.00 0.51 0.51 99 972.8
20260506113950 57 138 1.0 2.0 0.00 0.51 0.51 99 972.8
20260506113447 57 205 0.0 0.0 0.00 0.51 0.51 99 972.8
20260506112943 57 205 0.0 2.0 0.05 0.51 0.51 99 972.7
20260506112441 57 253 0.0 1.0 0.12 0.51 0.51 99 972.6
20260506111938 56 253 0.0 1.0 0.12 0.50 0.50 99 972.6
20260506111437 56 253 0.0 0.0 0.28 0.49 0.49 99 972.3
20260506110933 56 253 0.0 1.0 0.50 0.48 0.48 99 972.4
20260506110431 56 107 1.0 2.0 0.35 0.43 0.43 99 972.3
20260506105927 56 129 0.0 3.0 0.28 0.40 0.40 99 972.4
20260506105424 56 167 3.0 3.0 0.24 0.37 0.37 99 972.4
20260506104921 56 58 0.0 0.0 0.12 0.35 0.35 99 972.3
20260506104419 56 58 0.0 0.0 0.00 0.33 0.33 99 972.6
20260506103917 56 58 0.0 0.0 0.00 0.33 0.33 99 972.3
20260506103414 56 58 0.0 0.0 0.07 0.33 0.33 99 972.1
20260506102911 56 58 0.0 0.0 0.12 0.33 0.33 99 972.1
20260506102409 56 58 0.0 0.0 0.12 0.32 0.32 99 972.3
20260506101906 56 58 0.0 1.0 0.14 0.31 0.31 99 972.5
20260506101402 56 58 1.0 1.0 0.19 0.30 0.30 99 972.5
20260506100859 56 59 2.0 3.0 0.17 0.29 0.29 99 972.6
20260506100358 56 171 0.0 0.0 0.17 0.27 0.27 99 973.0
20260506095856 56 171 0.0 0.0 0.24 0.26 0.26 99 972.8
20260506095354 56 171 0.0 0.0 0.19 0.24 0.24 99 973.0
20260506094850 56 171 0.0 0.0 0.12 0.22 0.22 99 972.9
20260506094349 56 171 0.0 0.0 0.12 0.21 0.21 99 973.0
20260506093847 56 171 0.0 0.0 0.19 0.20 0.20 99 973.3
20260506093344 56 171 0.0 0.0 0.19 0.19 0.19 99 973.1
20260506092842 56 171 0.0 0.0 0.12 0.17 0.17 99 973.4
20260506092339 56 171 0.0 0.0 0.17 0.16 0.16 99 973.3
20260506091835 56 171 0.0 0.0 0.24 0.15 0.15 99 973.5
20260506091333 56 171 0.0 0.0 0.35 0.13 0.13 99 973.6
20260506090831 56 171 0.0 0.0 0.38 0.11 0.11 99 973.6
20260506090328 56 171 0.0 0.0 0.12 0.06 0.06 98 973.0
20260506085824 56 171 0.0 0.0 0.12 0.04 0.04 98 972.9
20260506085321 56 171 0.0 0.0 0.12 0.04 0.04 98 972.6
20260506084818 57 171 0.0 0.0 0.07 0.02 0.02 97 972.7
20260506084315 57 171 0.0 0.0 0.07 0.02 0.02 97 972.8
20260506083811 57 171 0.0 0.0 0.00 0.01 0.01 96 972.5
20260506083309 57 171 0.0 0.0 0.05 0.01 0.01 95 972.5
20260506082806 57 171 0.0 0.0 0.05 0.01 0.01 94 972.6
20260506082304 57 171 0.0 0.0 0.00 0.00 0.00 94 972.6
20260506081759 57 171 0.0 1.0 0.00 0.00 0.00 94 972.7
20260506081256 57 171 0.0 0.0 0.00 0.00 0.00 94 972.5
20260506080754 57 171 0.0 1.0 0.00 0.00 0.00 92 972.5
20260506080250 57 171 0.0 0.0 0.00 0.00 0.00 94 972.5
20260506073234 57 171 0.0 0.0 0.00 0.00 0.00 93 972.3
20260506072731 56 171 0.0 0.0 0.00 0.00 0.00 94 972.5
20260506072229 56 171 0.0 0.0 0.00 0.00 0.00 94 972.3
20260506071726 56 171 0.0 1.0 0.00 0.00 0.00 94 972.2
20260506071224 56 171 0.0 0.0 0.00 0.00 0.00 94 972.2
20260506070721 56 171 0.0 0.0 0.00 0.00 0.00 94 972.5
20260506070218 56 171 0.0 1.0 0.00 0.00 0.00 94 972.4
20260506062155 57 171 0.0 0.0 0.00 0.00 0.00 93 972.7
20260506061651 57 171 0.0 0.0 0.00 0.00 0.00 93 972.7
20260506061148 56 171 0.0 0.0 0.00 0.00 0.00 92 973.0
20260506060646 57 171 0.0 0.0 0.00 0.00 0.00 92 973.3
20260506060143 57 171 0.0 0.0 0.00 0.00 0.00 92 972.9
20260506051115 58 171 0.0 0.0 0.00 0.00 0.00 88 973.7
20260506050614 58 171 0.0 0.0 0.00 0.00 0.00 90 973.6
20260506050111 58 171 0.0 0.0 0.00 0.00 0.00 88 973.8
20260506045104 58 171 0.0 0.0 0.00 0.00 0.00 88 974.1
20260506044602 58 171 0.0 0.0 0.00 0.00 0.00 89 974.1
20260506044058 58 171 0.0 0.0 0.00 0.00 0.00 88 974.1
20260506043555 58 171 0.0 1.0 0.00 0.00 0.00 86 974.2
20260506043054 58 171 0.0 0.0 0.00 0.00 0.00 88 974.2
20260506042553 58 171 0.0 0.0 0.00 0.00 0.00 87 974.3
20260506042050 58 171 0.0 0.0 0.00 0.00 0.00 88 974.3
20260506041549 58 171 0.0 0.0 0.00 0.00 0.00 87 974.2
20260506041044 58 171 0.0 0.0 0.00 0.00 0.00 87 974.2
20260506040543 59 171 0.0 0.0 0.00 0.00 0.00 87 974.1
20260506040038 58 171 0.0 0.0 0.00 0.00 0.00 83 974.1
20260506035536 58 171 0.0 0.0 0.00 0.00 0.00 88 973.9
20260506035032 59 171 0.0 0.0 0.00 0.00 0.00 87 973.9
20260506034530 59 171 0.0 0.0 0.00 0.00 0.00 86 973.9
20260506034026 59 171 0.0 0.0 0.00 0.00 0.00 88 973.8
20260506033524 59 171 0.0 1.0 0.00 0.00 0.00 87 973.8
20260506033021 59 171 0.0 0.0 0.00 0.00 0.00 81 973.8
20260506032518 59 171 0.0 0.0 0.00 0.00 0.00 85 973.8
20260506032015 59 171 0.0 0.0 0.00 0.00 0.00 85 973.7
20260506031513 59 171 0.0 0.0 0.00 0.00 0.00 84 973.7
20260506031009 59 171 0.0 0.0 0.00 0.00 0.00 84 973.8
20260506030507 59 171 0.0 0.0 0.00 0.00 0.00 85 973.7
20260506030004 59 171 0.0 0.0 0.00 0.00 0.00 86 973.9
20260506025501 60 171 0.0 0.0 0.00 0.00 0.00 85 973.8
20260506024957 60 171 0.0 0.0 0.00 0.00 0.00 85 974.1
20260506024454 60 171 0.0 0.0 0.00 0.00 0.00 83 973.8
20260506023950 60 171 0.0 0.0 0.00 0.00 0.00 84 973.8
20260506023447 60 171 0.0 0.0 0.00 0.00 0.00 83 974.0
20260506022943 60 171 0.0 1.0 0.00 0.00 0.00 84 974.2
20260506022441 60 171 0.0 0.0 0.00 0.00 0.00 85 974.1
20260506021940 60 171 0.0 0.0 0.00 0.00 0.00 79 974.3
20260506021436 60 171 0.0 0.0 0.00 0.00 0.00 82 974.5
20260506020933 60 171 0.0 0.0 0.00 0.00 0.00 80 974.3
20260506020431 61 171 0.0 0.0 0.00 0.00 0.00 83 974.3
20260506015928 60 171 0.0 1.0 0.00 0.00 0.00 80 974.3
20260506015426 61 171 1.0 1.0 0.00 0.00 0.00 82 974.3
20260506014922 60 171 1.0 2.0 0.00 0.00 0.00 78 974.1
20260506014419 61 171 0.0 1.0 0.00 0.00 0.00 81 974.3
20260506013916 61 171 1.0 1.0 0.00 0.00 0.00 76 974.3
20260506013414 61 171 0.0 0.0 0.00 0.00 0.00 79 974.4
20260506012910 61 171 0.0 0.0 0.00 0.00 0.00 80 974.5
20260506012407 61 171 0.0 0.0 0.00 0.00 0.00 81 974.6
20260506011904 61 171 0.0 0.0 0.00 0.00 0.00 79 974.6
20260506011401 62 171 0.0 0.0 0.00 0.00 0.00 76 974.5
20260506010858 62 171 0.0 0.0 0.00 0.00 0.00 75 974.8
20260506010356 62 171 0.0 1.0 0.00 0.00 0.00 71 974.5
20260506005852 62 171 0.0 0.0 0.00 0.00 0.00 73 974.7
20260506005349 62 171 0.0 0.0 0.00 0.00 0.00 75 974.8
20260506004845 62 171 0.0 1.0 0.00 0.00 0.00 74 974.7
20260506004343 63 171 0.0 0.0 0.00 0.00 0.00 77 974.4
20260506003839 63 171 0.0 0.0 0.00 0.00 0.00 71 974.5
20260506003335 63 171 0.0 0.0 0.00 0.00 0.00 71 974.4
20260506002831 64 171 0.0 0.0 0.00 0.00 0.00 74 974.4
20260506002328 64 171 0.0 0.0 0.00 0.00 0.00 69 974.3
20260506001823 64 171 0.0 0.0 0.00 0.00 0.00 70 974.3
20260506001322 65 171 0.0 0.0 0.00 0.00 0.00 63 974.4
20260506000818 65 171 1.0 1.0 0.00 0.00 0.00 66 974.4
20260506000316 66 171 0.0 0.0 0.00 0.00 0.00 68 974.4
20260505235813 66 171 0.0 0.0 0.00 0.00 0.00 62 974.5
20260505235310 66 171 0.0 0.0 0.00 0.00 0.00 60 974.3
20260505234807 67 171 1.0 1.0 0.00 0.00 0.00 64 974.3
20260505234305 68 171 0.0 0.0 0.00 0.00 0.00 61 974.2
20260505233802 68 171 0.0 1.0 0.00 0.00 0.00 56 973.9
20260505233259 69 171 0.0 1.0 0.00 0.00 0.00 57 974.2
20260505232756 69 171 1.0 1.0 0.00 0.00 0.00 56 974.3
20260505232253 70 171 0.0 0.0 0.00 0.00 0.00 55 974.4
20260505231749 71 171 1.0 1.0 0.00 0.00 0.00 55 974.4
20260505231248 71 171 0.0 1.0 0.00 0.00 0.00 45 974.3
20260505230746 72 166 0.0 2.0 0.00 0.00 0.00 44 974.3
20260505230242 72 187 0.0 1.0 0.00 0.00 0.00 45 974.4
20260505225739 73 187 0.0 1.0 0.00 0.00 0.00 43 974.2
20260505225236 73 187 0.0 2.0 0.00 0.00 0.00 44 974.3
20260505224731 73 104 0.0 1.0 0.00 0.00 0.00 43 974.3
20260505224229 73 103 1.0 2.0 0.00 0.00 0.00 41 974.3
20260505223727 73 78 1.0 3.0 0.00 0.00 0.00 47 974.3
20260505223223 74 82 2.0 3.0 0.00 0.00 0.00 44 974.2
20260505222719 75 108 2.0 2.0 0.00 0.00 0.00 42 974.2
20260505222216 75 93 0.0 3.0 0.00 0.00 0.00 40 974.4
20260505221713 75 212 1.0 2.0 0.00 0.00 0.00 40 974.4
20260505221210 75 109 6.0 7.0 0.00 0.00 0.00 39 974.3
20260505220707 76 127 1.0 2.0 0.00 0.00 0.00 39 974.6
20260505220204 75 71 0.0 1.0 0.00 0.00 0.00 42 974.7
20260505215702 75 320 4.0 7.0 0.00 0.00 0.00 39 974.7
20260505215159 75 234 1.0 3.0 0.00 0.00 0.00 40 974.9
20260505214657 75 79 1.0 3.0 0.00 0.00 0.00 46 974.6
20260505214154 76 153 2.0 3.0 0.00 0.00 0.00 39 974.9
20260505213651 75 77 2.0 3.0 0.00 0.00 0.00 42 974.7
20260505213148 74 254 3.0 8.0 0.00 0.00 0.00 40 974.8
20260505212643 75 99 2.0 2.0 0.00 0.00 0.00 41 974.7
20260505212142 75 280 5.0 6.0 0.00 0.00 0.00 39 975.0
20260505211638 75 108 1.0 2.0 0.00 0.00 0.00 42 975.0
20260505211136 75 108 2.0 4.0 0.00 0.00 0.00 39 975.0
20260505210632 75 235 2.0 4.0 0.00 0.00 0.00 38 975.1